QPF
0.01 0.01 0.02 0.03 0.05 0.05 0.06 0.09 0.09 0.09 0.11 0.14 0.10 0.10 0.11 0.14 0.17 0.16 0.11 0.09 0.08 0.09 0.10 0.11 0.12 0.14 0.17 0.16 0.15 0.15 0.14 0.13 0.15 0.14 0.12 0.11 0.08 0.07 0.05 0.05 0.05 0.06 0.08
0.01 0.02 0.03 0.05 0.06 0.06 0.07 0.09 0.11 0.12 0.11 0.15 0.17 0.17 0.23 0.26 0.26 0.22 0.18 0.12 0.11 0.09 0.09 0.11 0.11 0.11 0.12 0.14 0.14 0.15 0.13 0.11 0.12 0.13 0.14 0.12 0.09 0.06 0.04 0.04 0.04 0.05 0.05
0.01 0.02 0.04 0.03 0.05 0.07 0.07 0.07 0.07 0.07 0.08 0.09 0.10 0.11 0.14 0.16 0.17 0.15 0.14 0.13 0.11 0.08 0.08 0.09 0.09 0.09 0.11 0.12 0.12 0.14 0.15 0.13 0.13 0.12 0.12 0.11 0.09 0.08 0.06 0.05 0.03 0.05 0.05
0.01 0.01 0.01 0.02 0.03 0.04 0.03 0.03 0.04 0.04 0.05 0.06 0.07 0.07 0.08 0.07 0.08 0.09 0.10 0.09 0.10 0.08 0.07 0.07 0.09 0.10 0.12 0.13 0.13 0.15 0.16 0.15 0.12 0.12 0.12 0.10 0.10 0.10 0.08 0.06 0.04 0.04 0.03
0.01 0.01 0.01 0.02 0.02 0.02 0.02 0.02 0.03 0.04 0.05 0.05 0.05 0.06 0.06 0.06 0.06 0.07 0.09 0.08 0.09 0.07 0.06 0.06 0.07 0.09 0.09 0.09 0.10 0.12 0.13 0.12 0.11 0.09 0.09 0.10 0.10 0.10 0.08 0.07 0.05 0.04 0.03
0.00 0.01 0.01 0.02 0.02 0.01 0.02 0.02 0.02 0.03 0.04 0.04 0.04 0.05 0.06 0.06 0.06 0.07 0.07 0.07 0.07 0.07 0.06 0.08 0.09 0.09 0.10 0.11 0.11 0.11 0.12 0.12 0.11 0.09 0.08 0.08 0.09 0.08 0.08 0.07 0.07 0.06 0.05
0.01 0.01 0.01 0.01 0.03 0.03 0.02 0.02 0.04 0.04 0.04 0.04 0.04 0.05 0.07 0.08 0.08 0.07 0.08 0.07 0.06 0.07 0.08 0.10 0.11 0.11 0.11 0.14 0.17 0.17 0.16 0.13 0.12 0.11 0.11 0.10 0.09 0.07 0.07 0.07 0.06 0.06 0.06
0.02 0.03 0.02 0.02 0.03 0.05 0.05 0.05 0.07 0.07 0.08 0.09 0.09 0.09 0.11 0.11 0.10 0.09 0.08 0.09 0.07 0.07 0.09 0.09 0.09 0.11 0.12 0.14 0.18 0.21 0.23 0.19 0.15 0.13 0.11 0.10 0.09 0.06 0.05 0.05 0.05 0.05 0.06
0.02 0.02 0.02 0.03 0.03 0.05 0.13 0.12 0.09 0.09 0.11 0.14 0.15 0.15 0.16 0.16 0.14 0.12 0.09 0.08 0.08 0.07 0.08 0.10 0.11 0.11 0.13 0.16 0.20 0.21 0.19 0.16 0.14 0.13 0.12 0.10 0.08 0.06 0.06 0.05 0.06 0.06 0.06
0.02 0.02 0.02 0.02 0.02 0.03 0.07 0.10 0.06 0.06 0.05 0.07 0.12 0.18 0.20 0.15 0.12 0.11 0.09 0.08 0.09 0.10 0.10 0.11 0.14 0.17 0.16 0.15 0.16 0.17 0.16 0.14 0.12 0.12 0.12 0.10 0.08 0.08 0.07 0.07 0.07 0.07 0.08
0.02 0.02 0.02 0.02 0.02 0.02 0.04 0.04 0.03 0.03 0.03 0.04 0.06 0.11 0.14 0.13 0.12 0.09 0.08 0.08 0.12 0.16 0.14 0.12 0.12 0.15 0.15 0.14 0.13 0.14 0.12 0.11 0.11 0.11 0.11 0.10 0.08 0.07 0.07 0.07 0.07 0.07 0.08
0.03 0.03 0.03 0.02 0.03 0.04 0.04 0.03 0.03 0.03 0.03 0.03 0.04 0.06 0.07 0.10 0.11 0.11 0.10 0.08 0.08 0.09 0.07 0.06 0.06 0.07 0.08 0.10 0.10 0.10 0.11 0.11 0.10 0.10 0.09 0.08 0.07 0.06 0.07 0.08 0.08 0.08 0.08
0.03 0.02 0.03 0.03 0.04 0.04 0.04 0.04 0.03 0.03 0.03 0.04 0.05 0.06 0.07 0.08 0.09 0.11 0.10 0.09 0.07 0.07 0.08 0.07 0.07 0.07 0.07 0.09 0.10 0.09 0.09 0.10 0.09 0.08 0.08 0.07 0.07 0.07 0.08 0.09 0.10 0.11 0.10
0.03 0.03 0.04 0.04 0.04 0.04 0.05 0.06 0.04 0.04 0.05 0.05 0.07 0.09 0.10 0.08 0.08 0.09 0.08 0.07 0.05 0.05 0.09 0.11 0.13 0.12 0.13 0.16 0.16 0.13 0.13 0.12 0.10 0.08 0.08 0.07 0.06 0.05 0.05 0.06 0.08 0.09 0.10
0.04 0.04 0.04 0.04 0.04 0.05 0.05 0.04 0.03 0.04 0.05 0.04 0.04 0.09 0.11 0.10 0.08 0.09 0.10 0.06 0.04 0.04 0.07 0.08 0.09 0.11 0.11 0.12 0.12 0.12 0.11 0.11 0.09 0.08 0.07 0.05 0.04 0.03 0.03 0.03 0.03 0.05 0.07
0.02 0.03 0.04 0.04 0.04 0.04 0.04 0.03 0.02 0.03 0.04 0.04 0.04 0.05 0.07 0.10 0.09 0.08 0.08 0.07 0.06 0.06 0.06 0.09 0.09 0.10 0.07 0.05 0.05 0.05 0.05 0.06 0.05 0.05 0.04 0.03 0.03 0.03 0.02 0.02 0.02 0.02 0.03
0.02 0.03 0.03 0.03 0.03 0.03 0.03 0.03 0.03 0.04 0.05 0.05 0.04 0.05 0.06 0.08 0.08 0.06 0.06 0.07 0.07 0.06 0.05 0.06 0.06 0.06 0.07 0.06 0.06 0.05 0.05 0.06 0.06 0.05 0.04 0.03 0.02 0.02 0.02 0.02 0.03 0.02 0.02
0.04 0.04 0.03 0.04 0.03 0.03 0.02 0.02 0.03 0.03 0.04 0.06 0.06 0.06 0.07 0.07 0.08 0.08 0.08 0.08 0.08 0.06 0.05 0.04 0.04 0.05 0.06 0.08 0.08 0.07 0.05 0.05 0.06 0.06 0.05 0.04 0.03 0.03 0.03 0.04 0.05 0.04 0.05
0.03 0.04 0.04 0.04 0.04 0.03 0.02 0.02 0.03 0.03 0.04 0.05 0.06 0.06 0.07 0.06 0.08 0.10 0.10 0.08 0.07 0.07 0.07 0.05 0.05 0.04 0.05 0.05 0.05 0.04 0.04 0.04 0.05 0.03 0.02 0.02 0.02 0.03 0.03 0.04 0.05 0.05 0.05
0.04 0.04 0.06 0.05 0.04 0.03 0.03 0.03 0.03 0.05 0.05 0.04 0.05 0.06 0.06 0.07 0.07 0.10 0.09 0.07 0.07 0.08 0.06 0.06 0.05 0.05 0.04 0.04 0.03 0.02 0.03 0.04 0.04 0.03 0.02 0.02 0.02 0.02 0.03 0.04 0.05 0.05 0.04
0.05 0.05 0.07 0.07 0.06 0.03 0.03 0.04 0.04 0.05 0.04 0.03 0.04 0.05 0.05 0.06 0.06 0.07 0.08 0.06 0.06 0.06 0.05 0.05 0.05 0.05 0.04 0.02 0.02 0.02 0.02 0.03 0.03 0.03 0.02 0.02 0.02 0.02 0.02 0.02 0.03 0.02 0.02
0.05 0.07 0.10 0.08 0.04 0.02 0.03 0.04 0.04 0.04 0.04 0.04 0.04 0.04 0.05 0.06 0.06 0.06 0.07 0.07 0.06 0.06 0.05 0.05 0.04 0.04 0.03 0.03 0.01 0.01 0.01 0.01 0.02 0.02 0.02 0.01 0.01 0.01 0.01 0.01 0.01 0.01 0.01
0.06 0.08 0.08 0.05 0.03 0.02 0.04 0.05 0.05 0.04 0.04 0.04 0.04 0.05 0.05 0.06 0.06 0.06 0.06 0.06 0.05 0.06 0.05 0.04 0.03 0.03 0.03 0.03 0.02 0.01 0.01 0.01 0.01 0.02 0.01 0.01 0.01 0.01 0.01 0.01 0.00 0.01 0.01
0.06 0.06 0.05 0.04 0.03 0.03 0.04 0.05 0.05 0.04 0.05 0.05 0.05 0.05 0.06 0.05 0.05 0.06 0.06 0.06 0.05 0.05 0.04 0.03 0.03 0.03 0.02 0.02 0.01 0.01 0.01 0.02 0.02 0.02 0.01 0.01 0.01 0.01 0.01 0.01 0.02 0.02 0.02
0.04 0.04 0.04 0.04 0.04 0.04 0.04 0.05 0.05 0.06 0.05 0.05 0.04 0.04 0.05 0.05 0.05 0.05 0.04 0.04 0.04 0.03 0.03 0.03 0.03 0.02 0.01 0.00 0.00 0.00 0.01 0.01 0.01 0.01 0.02 0.03 0.03 0.03 0.03 0.02 0.03 0.03 0.03
0.04 0.04 0.04 0.03 0.04 0.04 0.04 0.05 0.05 0.05 0.04 0.03 0.04 0.04 0.05 0.05 0.06 0.05 0.04 0.03 0.03 0.02 0.01 0.01 0.01 0.01 0.01 0.00 0.00 0.00 0.00 0.00 0.01 0.01 0.02 0.03 0.03 0.03 0.03 0.02 0.02 0.02 0.02
MSLP
1002.15 1001.62 1001.08 1000.57 1000.14 999.83 999.65 999.60 999.66 999.81 1000.01 1000.24 1000.47 1000.71 1000.97 1001.25 1001.58 1001.98 1002.44 1002.96 1003.52 1004.10 1004.66 1005.18 1005.65 1006.06 1006.44 1006.81 1007.17 1007.57 1008.00 1008.45 1008.91 1009.34 1009.69 1009.93 1010.04 1010.02 1009.88 1009.66 1009.42 1009.20 1009.06
1004.20 1003.61 1002.98 1002.36 1001.80 1001.34 1000.99 1000.77 1000.66 1000.63 1000.65 1000.70 1000.76 1000.83 1000.93 1001.09 1001.31 1001.63 1002.05 1002.55 1003.11 1003.69 1004.25 1004.77 1005.22 1005.61 1005.95 1006.27 1006.62 1007.02 1007.47 1007.98 1008.52 1009.03 1009.48 1009.81 1009.99 1010.02 1009.90 1009.68 1009.43 1009.19 1009.03
1005.93 1005.33 1004.66 1003.98 1003.33 1002.76 1002.28 1001.92 1001.65 1001.45 1001.31 1001.19 1001.09 1001.01 1000.98 1001.02 1001.15 1001.40 1001.78 1002.26 1002.80 1003.38 1003.94 1004.43 1004.86 1005.21 1005.51 1005.79 1006.11 1006.49 1006.95 1007.49 1008.08 1008.67 1009.20 1009.61 1009.87 1009.96 1009.89 1009.71 1009.48 1009.26 1009.10
1007.24 1006.67 1006.02 1005.32 1004.63 1003.99 1003.42 1002.93 1002.52 1002.17 1001.87 1001.60 1001.36 1001.16 1001.02 1000.97 1001.04 1001.24 1001.59 1002.05 1002.59 1003.16 1003.71 1004.19 1004.59 1004.90 1005.16 1005.41 1005.68 1006.04 1006.49 1007.04 1007.66 1008.28 1008.86 1009.34 1009.66 1009.81 1009.81 1009.69 1009.51 1009.34 1009.22
1008.16 1007.65 1007.04 1006.37 1005.67 1004.98 1004.32 1003.72 1003.18 1002.69 1002.25 1001.85 1001.49 1001.19 1000.97 1000.86 1000.90 1001.08 1001.42 1001.88 1002.43 1003.00 1003.55 1004.02 1004.41 1004.70 1004.93 1005.14 1005.38 1005.70 1006.13 1006.66 1007.26 1007.90 1008.49 1009.00 1009.36 1009.57 1009.64 1009.59 1009.49 1009.38 1009.32
1008.79 1008.36 1007.81 1007.17 1006.47 1005.73 1004.98 1004.26 1003.58 1002.95 1002.37 1001.85 1001.39 1001.02 1000.76 1000.63 1000.66 1000.86 1001.21 1001.68 1002.25 1002.84 1003.40 1003.89 1004.27 1004.57 1004.79 1004.98 1005.20 1005.48 1005.87 1006.36 1006.92 1007.52 1008.10 1008.61 1008.99 1009.24 1009.36 1009.39 1009.36 1009.33 1009.34
1009.28 1008.91 1008.41 1007.79 1007.06 1006.25 1005.40 1004.54 1003.71 1002.93 1002.22 1001.59 1001.05 1000.64 1000.36 1000.24 1000.29 1000.51 1000.90 1001.41 1002.00 1002.61 1003.20 1003.71 1004.13 1004.44 1004.68 1004.87 1005.08 1005.34 1005.69 1006.12 1006.63 1007.18 1007.71 1008.19 1008.57 1008.84 1009.00 1009.08 1009.13 1009.18 1009.25
1009.72 1009.38 1008.90 1008.26 1007.48 1006.58 1005.60 1004.59 1003.60 1002.66 1001.82 1001.10 1000.51 1000.07 999.80 999.70 999.79 1000.06 1000.48 1001.02 1001.64 1002.29 1002.91 1003.46 1003.91 1004.26 1004.54 1004.77 1004.99 1005.24 1005.56 1005.94 1006.39 1006.87 1007.35 1007.77 1008.13 1008.40 1008.58 1008.71 1008.82 1008.92 1009.06
1010.13 1009.79 1009.29 1008.61 1007.75 1006.74 1005.61 1004.45 1003.30 1002.23 1001.28 1000.48 999.85 999.41 999.16 999.11 999.24 999.55 1000.00 1000.56 1001.20 1001.86 1002.50 1003.09 1003.59 1004.00 1004.33 1004.61 1004.86 1005.13 1005.44 1005.80 1006.19 1006.61 1007.02 1007.40 1007.72 1007.98 1008.18 1008.34 1008.48 1008.64 1008.82
1010.49 1010.11 1009.57 1008.82 1007.87 1006.74 1005.49 1004.19 1002.91 1001.74 1000.71 999.87 999.24 998.82 998.61 998.59 998.76 999.08 999.54 1000.10 1000.72 1001.37 1002.02 1002.62 1003.16 1003.63 1004.03 1004.38 1004.70 1005.01 1005.33 1005.68 1006.05 1006.42 1006.78 1007.12 1007.41 1007.65 1007.85 1008.03 1008.20 1008.38 1008.59
1010.72 1010.28 1009.68 1008.87 1007.84 1006.62 1005.28 1003.89 1002.55 1001.33 1000.28 999.45 998.84 998.46 998.29 998.30 998.49 998.80 999.23 999.74 1000.32 1000.92 1001.54 1002.14 1002.70 1003.22 1003.68 1004.11 1004.50 1004.87 1005.24 1005.61 1005.97 1006.33 1006.67 1006.98 1007.25 1007.48 1007.69 1007.87 1008.05 1008.24 1008.45
1010.77 1010.28 1009.62 1008.76 1007.68 1006.43 1005.06 1003.66 1002.32 1001.11 1000.11 999.32 998.78 998.45 998.32 998.36 998.53 998.81 999.18 999.61 1000.09 1000.61 1001.17 1001.73 1002.29 1002.83 1003.36 1003.85 1004.32 1004.77 1005.20 1005.61 1005.99 1006.36 1006.70 1007.00 1007.27 1007.51 1007.71 1007.90 1008.08 1008.26 1008.45
1010.64 1010.10 1009.40 1008.53 1007.46 1006.23 1004.90 1003.56 1002.29 1001.17 1000.26 999.57 999.11 998.85 998.76 998.81 998.95 999.17 999.44 999.75 1000.12 1000.53 1000.99 1001.49 1002.02 1002.57 1003.14 1003.69 1004.24 1004.76 1005.25 1005.71 1006.14 1006.53 1006.89 1007.20 1007.48 1007.72 1007.93 1008.12 1008.29 1008.46 1008.61
1010.38 1009.80 1009.10 1008.25 1007.23 1006.08 1004.85 1003.63 1002.49 1001.51 1000.72 1000.16 999.79 999.61 999.56 999.60 999.71 999.84 1000.00 1000.19 1000.43 1000.71 1001.06 1001.49 1001.98 1002.52 1003.10 1003.70 1004.30 1004.88 1005.43 1005.94 1006.41 1006.84 1007.22 1007.55 1007.85 1008.10 1008.32 1008.50 1008.66 1008.79 1008.91
1010.08 1009.48 1008.80 1008.00 1007.07 1006.03 1004.94 1003.86 1002.89 1002.06 1001.42 1000.98 1000.72 1000.60 1000.58 1000.61 1000.67 1000.73 1000.79 1000.87 1000.98 1001.16 1001.41 1001.76 1002.19 1002.71 1003.29 1003.91 1004.54 1005.16 1005.75 1006.30 1006.80 1007.25 1007.65 1008.01 1008.31 1008.58 1008.79 1008.97 1009.10 1009.21 1009.28
1009.86 1009.26 1008.61 1007.86 1007.02 1006.10 1005.14 1004.22 1003.39 1002.71 1002.20 1001.87 1001.69 1001.63 1001.63 1001.66 1001.69 1001.69 1001.68 1001.68 1001.71 1001.80 1001.98 1002.27 1002.67 1003.16 1003.73 1004.34 1004.98 1005.60 1006.21 1006.76 1007.27 1007.73 1008.14 1008.50 1008.81 1009.08 1009.29 1009.45 1009.56 1009.63 1009.66
1009.79 1009.20 1008.57 1007.88 1007.10 1006.27 1005.43 1004.62 1003.91 1003.33 1002.91 1002.66 1002.53 1002.50 1002.53 1002.56 1002.58 1002.57 1002.53 1002.50 1002.50 1002.56 1002.72 1002.98 1003.35 1003.83 1004.37 1004.97 1005.58 1006.19 1006.77 1007.31 1007.80 1008.24 1008.64 1008.99 1009.29 1009.53 1009.73 1009.88 1009.97 1010.00 1009.99
1009.93 1009.33 1008.71 1008.04 1007.30 1006.52 1005.73 1004.98 1004.32 1003.80 1003.42 1003.20 1003.10 1003.09 1003.13 1003.19 1003.23 1003.25 1003.24 1003.25 1003.28 1003.37 1003.54 1003.82 1004.19 1004.65 1005.18 1005.74 1006.32 1006.88 1007.41 1007.90 1008.34 1008.74 1009.10 1009.41 1009.68 1009.91 1010.09 1010.21 1010.27 1010.28 1010.23
1010.24 1009.63 1009.00 1008.32 1007.57 1006.79 1005.99 1005.24 1004.58 1004.05 1003.68 1003.45 1003.35 1003.35 1003.42 1003.51 1003.61 1003.70 1003.78 1003.87 1003.98 1004.16 1004.39 1004.71 1005.11 1005.57 1006.07 1006.60 1007.12 1007.61 1008.07 1008.49 1008.86 1009.20 1009.50 1009.77 1010.00 1010.19 1010.34 1010.44 1010.48 1010.46 1010.39
1010.65 1010.03 1009.38 1008.66 1007.87 1007.04 1006.20 1005.41 1004.71 1004.14 1003.72 1003.47 1003.36 1003.37 1003.47 1003.62 1003.80 1003.98 1004.18 1004.39 1004.63 1004.91 1005.24 1005.62 1006.06 1006.52 1007.00 1007.48 1007.93 1008.35 1008.73 1009.06 1009.35 1009.61 1009.84 1010.05 1010.24 1010.40 1010.51 1010.59 1010.61 1010.58 1010.49
1011.09 1010.46 1009.78 1009.01 1008.17 1007.28 1006.38 1005.52 1004.77 1004.15 1003.69 1003.41 1003.29 1003.31 1003.44 1003.66 1003.93 1004.23 1004.55 1004.90 1005.26 1005.66 1006.08 1006.52 1006.99 1007.46 1007.91 1008.34 1008.72 1009.06 1009.35 1009.59 1009.80 1009.98 1010.14 1010.29 1010.43 1010.55 1010.64 1010.69 1010.70 1010.66 1010.57
1011.49 1010.86 1010.15 1009.35 1008.47 1007.53 1006.58 1005.68 1004.89 1004.23 1003.75 1003.45 1003.34 1003.38 1003.55 1003.83 1004.18 1004.58 1005.01 1005.47 1005.94 1006.42 1006.92 1007.41 1007.89 1008.35 1008.77 1009.14 1009.45 1009.71 1009.91 1010.07 1010.20 1010.31 1010.41 1010.51 1010.60 1010.69 1010.75 1010.79 1010.79 1010.74 1010.65
1011.81 1011.21 1010.50 1009.69 1008.79 1007.85 1006.89 1005.99 1005.19 1004.54 1004.07 1003.78 1003.68 1003.75 1003.96 1004.29 1004.70 1005.16 1005.66 1006.18 1006.72 1007.25 1007.77 1008.27 1008.74 1009.17 1009.54 1009.86 1010.10 1010.29 1010.42 1010.51 1010.57 1010.62 1010.67 1010.72 1010.78 1010.83 1010.88 1010.90 1010.89 1010.85 1010.77
1012.07 1011.50 1010.83 1010.05 1009.19 1008.28 1007.38 1006.53 1005.78 1005.18 1004.75 1004.51 1004.44 1004.54 1004.78 1005.12 1005.55 1006.03 1006.54 1007.08 1007.61 1008.13 1008.63 1009.11 1009.54 1009.92 1010.23 1010.48 1010.67 1010.79 1010.87 1010.90 1010.91 1010.91 1010.92 1010.94 1010.96 1010.99 1011.02 1011.04 1011.03 1010.99 1010.91
1012.28 1011.77 1011.16 1010.45 1009.67 1008.86 1008.06 1007.31 1006.68 1006.17 1005.83 1005.65 1005.63 1005.75 1005.99 1006.32 1006.73 1007.17 1007.64 1008.12 1008.60 1009.06 1009.50 1009.90 1010.26 1010.57 1010.83 1011.02 1011.15 1011.22 1011.25 1011.25 1011.22 1011.20 1011.17 1011.16 1011.16 1011.17 1011.19 1011.19 1011.18 1011.14 1011.07
1012.48 1012.04 1011.51 1010.91 1010.25 1009.58 1008.92 1008.33 1007.83 1007.45 1007.21 1007.11 1007.13 1007.27 1007.50 1007.79 1008.13 1008.49 1008.87 1009.25 1009.62 1009.98 1010.32 1010.63 1010.91 1011.15 1011.33 1011.47 1011.56 1011.60 1011.59 1011.56 1011.52 1011.47 1011.42 1011.39 1011.37 1011.36 1011.36 1011.35 1011.33 1011.29 1011.23
Thickness
5773 5772 5770 5766 5761 5756 5753 5748 5745 5742 5739 5734 5731 5727 5724 5722 5719 5716 5714 5711 5708 5705 5701 5698 5695 5693 5691 5689 5688 5686 5684 5682 5682 5680 5680 5684 5688 5689 5689 5690 5690 5690 5691
5765 5763 5761 5758 5752 5747 5743 5740 5737 5735 5732 5728 5726 5722 5719 5716 5713 5711 5709 5705 5702 5699 5697 5692 5690 5688 5686 5683 5682 5680 5678 5677 5676 5673 5669 5669 5673 5678 5684 5683 5683 5684 5686
5756 5754 5752 5750 5746 5741 5736 5733 5730 5728 5726 5723 5720 5717 5713 5711 5708 5704 5700 5699 5696 5693 5690 5687 5685 5682 5680 5678 5677 5676 5672 5669 5670 5670 5665 5660 5659 5665 5672 5675 5677 5677 5678
5752 5748 5745 5742 5739 5736 5732 5727 5724 5721 5719 5717 5712 5708 5704 5702 5700 5698 5695 5692 5689 5687 5684 5682 5680 5677 5676 5674 5673 5671 5668 5665 5662 5663 5663 5661 5660 5655 5657 5663 5668 5670 5671
5745 5741 5738 5735 5733 5730 5726 5721 5717 5713 5711 5709 5706 5702 5700 5698 5695 5692 5689 5686 5684 5681 5679 5677 5674 5673 5671 5669 5668 5666 5664 5661 5659 5656 5655 5654 5654 5653 5649 5650 5655 5659 5664
5736 5732 5730 5727 5724 5722 5718 5714 5710 5706 5703 5701 5698 5695 5692 5690 5687 5684 5681 5680 5678 5676 5674 5672 5670 5668 5666 5664 5664 5662 5659 5657 5655 5653 5651 5649 5647 5646 5645 5644 5647 5649 5655
5727 5721 5719 5716 5712 5710 5708 5706 5702 5698 5697 5695 5692 5689 5686 5683 5680 5678 5675 5673 5672 5670 5668 5667 5664 5663 5661 5661 5660 5658 5655 5653 5650 5648 5647 5646 5644 5644 5643 5641 5641 5643 5648
5719 5714 5711 5708 5704 5701 5699 5696 5694 5692 5690 5687 5685 5683 5681 5679 5676 5673 5671 5669 5667 5666 5664 5663 5661 5659 5657 5656 5655 5653 5650 5648 5646 5644 5643 5641 5641 5641 5640 5638 5636 5636 5639
5712 5708 5704 5700 5697 5694 5691 5687 5684 5683 5683 5681 5678 5677 5675 5674 5671 5668 5667 5664 5663 5662 5661 5659 5657 5655 5654 5652 5650 5648 5645 5643 5641 5640 5639 5638 5637 5637 5637 5636 5635 5631 5631
5704 5700 5696 5693 5690 5687 5685 5682 5679 5677 5678 5676 5673 5671 5669 5668 5666 5663 5661 5659 5658 5657 5655 5654 5653 5651 5650 5648 5646 5644 5642 5639 5637 5636 5634 5633 5633 5632 5632 5632 5632 5631 5629
5696 5693 5690 5688 5685 5681 5678 5676 5674 5673 5673 5671 5668 5665 5664 5662 5661 5659 5657 5655 5654 5652 5650 5649 5648 5647 5646 5645 5642 5640 5638 5636 5633 5632 5630 5629 5628 5627 5627 5628 5628 5628 5627
5689 5686 5683 5680 5677 5674 5672 5670 5669 5667 5666 5665 5663 5661 5658 5657 5655 5654 5653 5651 5650 5649 5647 5646 5645 5644 5643 5641 5639 5637 5635 5632 5629 5627 5626 5625 5624 5623 5623 5623 5623 5623 5623
5680 5678 5675 5673 5670 5669 5667 5665 5663 5662 5662 5660 5658 5655 5654 5651 5650 5649 5648 5647 5645 5644 5643 5643 5641 5640 5639 5637 5637 5635 5632 5629 5626 5625 5623 5622 5621 5619 5618 5617 5618 5618 5620
5672 5670 5667 5664 5663 5661 5660 5658 5657 5656 5656 5654 5652 5650 5648 5646 5645 5645 5644 5642 5641 5640 5639 5639 5637 5636 5635 5634 5632 5631 5629 5626 5624 5622 5620 5619 5617 5615 5613 5612 5612 5612 5613
5664 5662 5659 5657 5656 5654 5653 5652 5651 5650 5650 5648 5647 5645 5644 5642 5640 5639 5639 5638 5637 5637 5636 5634 5633 5632 5630 5629 5627 5626 5625 5623 5621 5619 5617 5615 5614 5612 5609 5608 5607 5606 5606
5656 5654 5652 5650 5648 5647 5647 5647 5646 5645 5644 5643 5642 5641 5640 5637 5635 5635 5634 5633 5632 5632 5631 5630 5628 5626 5625 5623 5622 5621 5619 5618 5617 5615 5614 5612 5611 5608 5606 5604 5603 5602 5601
5648 5646 5644 5643 5642 5642 5641 5641 5641 5640 5639 5638 5638 5637 5635 5633 5631 5631 5630 5628 5626 5626 5626 5625 5623 5620 5619 5618 5617 5617 5615 5615 5613 5612 5610 5609 5608 5606 5604 5601 5600 5598 5597
5643 5641 5639 5638 5638 5638 5638 5638 5638 5637 5635 5634 5634 5632 5630 5629 5628 5627 5625 5624 5622 5622 5622 5621 5619 5617 5616 5614 5614 5613 5612 5610 5610 5609 5607 5605 5603 5602 5599 5598 5596 5594 5593
5638 5637 5637 5636 5635 5635 5635 5634 5635 5634 5632 5631 5630 5629 5626 5625 5623 5622 5621 5620 5620 5619 5619 5618 5616 5614 5613 5611 5610 5609 5609 5608 5607 5607 5604 5602 5599 5596 5594 5593 5591 5590 5589
5635 5635 5635 5634 5632 5633 5633 5631 5630 5630 5629 5629 5628 5627 5625 5622 5620 5619 5619 5619 5619 5618 5617 5615 5614 5612 5611 5608 5607 5605 5605 5604 5603 5602 5600 5597 5595 5592 5589 5588 5586 5585 5585
5632 5633 5633 5631 5630 5631 5630 5628 5627 5627 5628 5628 5627 5625 5623 5621 5620 5619 5618 5618 5617 5616 5615 5613 5612 5611 5610 5607 5603 5601 5601 5600 5598 5597 5596 5593 5590 5589 5586 5584 5582 5581 5580
5630 5631 5630 5629 5629 5629 5627 5626 5626 5627 5627 5626 5625 5623 5622 5621 5620 5618 5618 5618 5616 5615 5613 5612 5610 5610 5608 5606 5602 5599 5597 5595 5593 5593 5592 5590 5587 5585 5583 5582 5581 5579 5576
5628 5629 5628 5627 5627 5628 5627 5625 5626 5627 5626 5624 5623 5622 5622 5621 5620 5618 5617 5616 5616 5614 5612 5610 5608 5607 5606 5604 5600 5597 5595 5592 5590 5590 5588 5586 5584 5582 5582 5581 5579 5576 5575
5627 5627 5626 5624 5625 5626 5626 5626 5627 5627 5625 5623 5622 5621 5620 5620 5620 5618 5617 5615 5613 5612 5610 5608 5606 5605 5603 5600 5597 5595 5593 5591 5589 5587 5585 5584 5584 5582 5581 5580 5579 5577 5575
5626 5625 5624 5623 5624 5625 5626 5627 5627 5627 5624 5622 5621 5620 5620 5619 5618 5616 5613 5613 5611 5609 5607 5606 5604 5602 5599 5595 5592 5589 5589 5586 5584 5581 5582 5583 5583 5582 5581 5580 5579 5577 5575
5624 5624 5624 5624 5625 5625 5626 5627 5627 5626 5623 5621 5620 5620 5619 5619 5618 5616 5612 5610 5609 5607 5605 5603 5601 5599 5596 5592 5590 5587 5584 5582 5579 5578 5580 5580 5579 5579 5578 5577 5575 5574 5572